AA2YS Weather Reports


Display with metric or nautical units.
time (UTC)temp
F
wind
direction
speed
MPH
gust
MPH
rain 1hr
in
rain 24hr
in
rain mn
in
humidity
%
barometer
mb
20260902160520 78 0.0 1.0 0.00 0.07 0.07 94 1014.1
20260902155519 77 0.0 3.0 0.00 0.07 0.07 96 1014.0
20260902154519 76 0.0 0.0 0.00 0.07 0.07 97 1014.3
20260902153520 75 45 1.0 4.0 0.00 0.07 0.07 97 1014.5
20260902152519 75 0.0 0.0 0.00 0.07 0.07 97 1014.4
20260902151540 74 0.0 0.0 0.00 0.07 0.07 97 1014.3
20260902150519 74 0.0 1.0 0.00 0.07 0.07 97 1014.3
20260902145519 74 0.0 1.0 0.00 0.07 0.07 97 1014.3
20260902144520 74 0.0 0.0 0.00 0.07 0.07 97 1014.4
20260902143519 73 0.0 0.0 0.00 0.07 0.07 97 1014.7
20260902142520 72 0.0 0.0 0.00 0.07 0.07 97 1014.6
20260902141540 72 0.0 0.0 0.00 0.07 0.07 97 1015.0
20260902140519 72 0.0 0.0 0.02 0.07 0.07 96 1015.0
20260902135519 71 0.0 0.0 0.04 0.07 0.07 97 1015.1
20260902134519 71 0.0 0.0 0.05 0.07 0.07 96 1015.6
20260902133519 70 0.0 0.0 0.06 0.07 0.07 96 1015.4
20260902132520 70 0.0 0.0 0.07 0.07 0.07 96 1015.3
20260902131519 70 0.0 0.0 0.07 0.07 0.07 96 1015.6
20260902130519 70 0.0 0.0 0.05 0.05 0.05 96 1015.9
20260902125519 69 0.0 0.0 0.03 0.03 0.03 95 1015.7
20260902124519 69 0.0 0.0 0.02 0.02 0.02 95 1015.3
20260902123519 69 0.0 0.0 0.01 0.01 0.01 95 1014.5
20260902122600 69 0.0 0.0 0.00 0.00 0.00 95 1014.8
20260902121519 69 0.0 0.0 0.00 0.00 0.00 95 1014.9
20260902120519 69 0.0 0.0 0.00 0.00 0.00 95 1014.0
20260902115540 68 0.0 0.0 0.00 0.00 0.00 95 1014.0
20260902114519 68 0.0 0.0 0.00 0.00 0.00 95 1014.2
20260902113519 68 0.0 0.0 0.00 0.00 0.00 95 1013.5
20260902112519 68 0.0 0.0 0.00 0.00 0.00 94 1013.0
20260902111519 68 0.0 0.0 0.00 0.00 0.00 94 1013.3
20260902110519 68 0.0 0.0 0.00 0.00 0.00 94 1013.3
20260902105539 68 0.0 0.0 0.00 0.00 0.00 94 1013.2
20260902104519 68 0.0 0.0 0.00 0.00 0.00 94 1013.2
20260902103519 68 0.0 0.0 0.00 0.00 0.00 93 1013.4
20260902102519 68 0.0 0.0 0.00 0.00 0.00 93 1013.0
20260902101519 68 0.0 0.0 0.00 0.00 0.00 93 1013.1
20260902100520 68 0.0 0.0 0.00 0.00 0.00 93 1013.2
20260902095519 68 0.0 0.0 0.00 0.00 0.00 93 1013.6
20260902094519 68 0.0 0.0 0.00 0.00 0.00 93 1013.6
20260902093519 68 0.0 0.0 0.00 0.00 0.00 93 1014.0
20260902092520 68 0.0 0.0 0.00 0.01 0.00 93 1014.1
20260902091519 68 0.0 0.0 0.00 0.01 0.00 93 1014.0
20260902090519 68 0.0 0.0 0.00 0.01 0.00 92 1013.9
20260902085519 68 0.0 0.0 0.00 0.01 0.00 92 1014.0
20260902084539 68 0.0 0.0 0.00 0.02 0.00 92 1014.2
20260902083519 68 0.0 0.0 0.00 0.02 0.00 92 1014.3
20260902082519 68 0.0 0.0 0.00 0.02 0.00 92 1014.5
20260902081519 68 0.0 0.0 0.00 0.02 0.00 92 1014.6
20260902080519 68 0.0 0.0 0.00 0.02 0.00 92 1014.5
20260902075519 68 0.0 0.0 0.00 0.02 0.00 92 1014.5
20260902074519 68 0.0 0.0 0.00 0.05 0.00 92 1014.6
20260902073539 68 0.0 0.0 0.00 0.05 0.00 92 1014.6
20260902072519 68 0.0 0.0 0.00 0.05 0.00 92 1014.7
20260902071519 68 0.0 0.0 0.00 0.05 0.00 92 1014.7
20260902070520 68 0.0 0.0 0.00 0.05 0.00 92 1014.7
20260902065519 69 0.0 0.0 0.00 0.05 0.00 91 1014.7
20260902064519 69 0.0 0.0 0.00 0.05 0.00 91 1014.5
20260902063519 69 0.0 0.0 0.00 0.05 0.00 91 1014.4
20260902062519 69 0.0 0.0 0.00 0.05 0.00 90 1014.6
20260902061519 69 0.0 0.0 0.00 0.05 0.00 91 1014.8
20260902060519 69 0.0 0.0 0.00 0.05 0.00 90 1014.8
20260902055519 69 0.0 0.0 0.00 0.05 0.00 90 1014.8
20260902054519 70 0.0 0.0 0.00 0.05 0.00 90 1014.8
20260902053519 70 0.0 0.0 0.00 0.06 0.00 90 1014.9
20260902052519 70 0.0 0.0 0.00 0.06 0.00 90 1014.9
20260902051519 70 0.0 0.0 0.00 0.07 0.00 90 1014.7
20260902050519 71 0.0 0.0 0.00 0.08 0.00 90 1014.8
20260902045559 71 0.0 0.0 0.00 0.08 0.00 91 1014.9
20260902044519 71 0.0 0.0 0.00 0.08 0.00 90 1014.8
20260902043519 71 0.0 0.0 0.00 0.08 0.00 90 1014.9
20260902042519 71 0.0 0.0 0.00 0.08 0.00 91 1014.7
20260902041520 71 0.0 0.0 0.00 0.08 0.00 90 1014.8
20260902040540 72 0.0 0.0 0.00 0.08 0.00 90 1014.8
20260902035520 72 0.0 0.0 0.00 0.08 0.08 90 1014.8
20260902034520 72 0.0 0.0 0.00 0.08 0.08 91 1014.8
20260902033540 72 0.0 0.0 0.00 0.08 0.08 91 1014.8
20260902032520 72 0.0 0.0 0.00 0.08 0.08 91 1014.7
20260902031520 72 0.0 0.0 0.00 0.08 0.08 91 1014.7
20260902030520 72 0.0 0.0 0.00 0.08 0.08 91 1014.8
20260902025520 72 0.0 0.0 0.00 0.08 0.08 91 1014.8
20260902024520 72 0.0 0.0 0.00 0.08 0.08 89 1014.8
20260902023520 72 0.0 0.0 0.00 0.08 0.08 89 1014.9
20260902022540 72 0.0 0.0 0.00 0.08 0.08 90 1014.7
20260902021522 73 0.0 0.0 0.00 0.08 0.08 90 1014.8
20260902020520 73 0.0 0.0 0.00 0.08 0.08 90 1014.9
20260902015540 73 0.0 0.0 0.00 0.08 0.08 89 1014.9
20260902014520 73 0.0 0.0 0.00 0.08 0.08 88 1014.9
20260902013520 73 0.0 0.0 0.00 0.08 0.08 87 1014.9
20260902012520 73 0.0 0.0 0.00 0.08 0.08 87 1014.8
20260902011600 73 0.0 0.0 0.00 0.08 0.08 86 1014.8
20260902010540 73 0.0 0.0 0.00 0.08 0.08 87 1014.7
20260902005540 74 0.0 0.0 0.00 0.08 0.08 85 1014.5
20260902004520 74 0.0 0.0 0.00 0.08 0.08 85 1014.2
20260902003520 74 0.0 0.0 0.00 0.08 0.08 84 1014.1
20260902002520 74 0.0 0.0 0.00 0.08 0.08 83 1013.9
20260902001520 75 0.0 0.0 0.00 0.09 0.08 83 1013.6
20260902000520 75 0.0 0.0 0.00 0.09 0.08 83 1013.5
20260901235519 76 0.0 0.0 0.00 0.09 0.08 82 1013.5
20260901234520 76 0.0 0.0 0.00 0.09 0.08 82 1013.6
20260901233520 77 0.0 0.0 0.00 0.09 0.08 82 1013.7
20260901232540 77 0.0 0.0 0.00 0.09 0.08 81 1013.6
20260901231520 77 0.0 0.0 0.00 0.09 0.08 81 1013.7
20260901230520 78 0.0 0.0 0.00 0.09 0.08 81 1013.8
20260901225520 78 0.0 0.0 0.00 0.09 0.08 81 1013.8
20260901224520 79 0.0 0.0 0.00 0.09 0.08 81 1013.8
20260901223520 79 0.0 0.0 0.00 0.09 0.08 80 1013.8
20260901222521 79 0.0 0.0 0.00 0.09 0.08 80 1013.8
20260901221519 79 0.0 0.0 0.00 0.09 0.08 80 1013.8
20260901220540 80 0.0 0.0 0.00 0.09 0.08 79 1013.7
20260901215520 80 0.0 0.0 0.00 0.09 0.08 79 1013.7
20260901214520 80 0.0 3.0 0.00 0.09 0.08 79 1013.6
20260901213520 80 0.0 2.0 0.00 0.09 0.08 79 1013.5
20260901212519 80 0.0 3.0 0.00 0.09 0.08 79 1013.4
20260901211520 81 0.0 3.0 0.00 0.09 0.08 79 1013.5
20260901210540 81 0.0 0.0 0.00 0.09 0.08 77 1013.4
20260901205520 81 0.0 2.0 0.00 0.09 0.08 77 1013.4
20260901204540 82 0.0 1.0 0.00 0.10 0.08 76 1013.5
20260901203540 82 0.0 3.0 0.00 0.11 0.08 76 1013.7
20260901202520 82 0.0 3.0 0.00 0.14 0.08 74 1013.8
20260901201520 83 0.0 2.0 0.00 0.17 0.08 74 1013.7
20260901200540 84 0.0 1.0 0.00 0.18 0.08 74 1013.6
20260901195520 84 0.0 3.0 0.00 0.19 0.08 73 1013.6
20260901194520 84 68 1.0 4.0 0.00 0.19 0.08 74 1013.7
20260901193540 83 45 2.0 5.0 0.00 0.22 0.08 76 1013.6
20260901192520 82 0.0 3.0 0.00 0.23 0.08 77 1013.7
20260901191520 82 0.0 4.0 0.00 0.27 0.08 77 1013.7
20260901190540 81 0.0 4.0 0.00 0.32 0.08 78 1013.7
20260901185520 81 90 1.0 5.0 0.00 0.40 0.08 79 1013.8
20260901184520 81 90 1.0 6.0 0.00 0.40 0.08 79 1013.9
20260901183519 81 90 1.0 3.0 0.00 0.40 0.08 78 1013.7
20260901182520 81 45 1.0 9.0 0.00 0.48 0.08 79 1013.8
20260901181520 81 0.0 4.0 0.00 0.58 0.08 80 1013.7
20260901180520 81 113 1.0 7.0 0.00 0.67 0.08 80 1013.5
20260901175520 80 45 1.0 6.0 0.00 0.68 0.08 80 1013.5
20260901174519 80 248 2.0 9.0 0.00 0.69 0.08 81 1013.4
20260901173540 80 248 1.0 8.0 0.00 0.75 0.08 83 1013.2
20260901172520 80 225 1.0 7.0 0.00 0.75 0.08 83 1013.2
20260901171520 79 0.0 4.0 0.00 0.75 0.08 83 1013.2
20260901170520 80 68 1.0 7.0 0.00 0.76 0.08 82 1013.1
20260901165519 81 135 1.0 6.0 0.00 0.79 0.08 81 1013.1
20260901164520 81 248 1.0 9.0 0.00 0.80 0.08 83 1013.1
20260901163540 81 270 1.0 6.0 0.00 0.80 0.08 86 1013.1
20260901162521 81 0.0 1.0 0.00 0.80 0.08 91 1012.9
20260901161539 80 0.0 0.0 0.00 0.81 0.08 93 1012.8